www.pogodaiklimat.ru

Погода и климат >> Архив погоды >> Оман >> Diba


ПОГОДА в Diba

  • Прогноз погоды в Diba
  • Монитор погоды в Diba
  • Климат города

АРХИВ ПОГОДЫ в Diba

Время (UTC), дата Ветер
(напр.,м/с)
 
Видим.   Явления Облачность Т
(С)
Тd
(С)
f
(%)
Тe
(С)
Тes
(С)
Комфортность P
(гПа)
Po
(гПа)
Тmin
(С)
Tmax
(С)
R
(мм)
R24
(мм)
S
(см)
21 10.07 н/о н/о +32.5 +30.2 88 995.9 993.5
00 11.07 С 1 н/о н/о +32.5 +30.5 89 +61 +61 опасность
перегрева
995.9 993.5
03 11.07 С 4 н/о н/о +32.5 +30.4 89 +61 +61 опасность
перегрева
997.3 994.8
06 11.07 СВ 4 н/о н/о +35.4 +29.5 72 +61 +61 опасность
перегрева
997.9 995.5 +31.7
09 11.07 СВ 4 н/о н/о +36.1 +29.2 68 +60 +60 опасность
перегрева
997.1 994.7
12 11.07 СВ 4 н/о н/о +35.8 +29.0 68 +59 +59 опасность
перегрева
995.5 993.1
15 11.07 СВ 3 н/о н/о +34.3 +29.2 75 +59 +59 опасность
перегрева
994.7 992.3
18 11.07 С 2 н/о н/о +32.9 +29.9 84 +59 +59 опасность
перегрева
994.9 992.5 +36.7
21 11.07 СЗ 1 н/о н/о +32.0 +30.1 90 +59 +59 опасность
перегрева
995.3 992.9
00 12.07 ЮЗ 2 н/о н/о +31.6 +29.9 91 +58 +58 опасность
перегрева
994.6 992.2
03 12.07 Ю 3 н/о н/о +33.7 +26.3 65 +50 +50 опасность
перегрева
995.2 992.8
06 12.07 СВ 5 н/о н/о +38.4 +27.3 54 +57 +57 опасность
перегрева
996.0 993.6 +31.4
09 12.07 СВ 4 н/о н/о +36.1 +30.2 72 +64 +64 опасность
перегрева
995.3 992.9
12 12.07 СВ 4 н/о н/о +35.3 +29.5 72 +60 +60 опасность
перегрева
994.0 991.6
15 12.07 СВ 2 н/о н/о +33.8 +28.7 75 +57 +57 опасность
перегрева
993.2 990.8
18 12.07 С 1 н/о н/о +32.4 +28.4 80 +54 +54 опасность
перегрева
993.7 991.3 +38.4
21 12.07 С 2 н/о н/о +32.1 +30.3 90 +60 +60 опасность
перегрева
994.8 992.4
00 13.07 штиль 0 н/о н/о +31.8 +29.4 87 +56 +56 опасность
перегрева
993.9 991.5
03 13.07 З 1 н/о н/о +32.7 +28.9 80 +56 +56 опасность
перегрева
994.4 992.0
06 13.07 СВ 5 н/о н/о +35.0 +30.0 75 +62 +62 опасность
перегрева
995.6 993.2 +31.1
09 13.07 СВ 4 н/о н/о +38.2 +26.5 52 +55 +55 опасность
перегрева
995.1 992.7
21 14.07 СВ 2 н/о н/о +32.3 +28.0 78 +53 +53 опасность
перегрева
994.7 992.3
00 15.07 штиль 0 н/о н/о +31.2 +28.4 85 +52 +52 опасность
перегрева
994.2 991.8
03 15.07 С 2 н/о н/о +32.1 +29.1 84 +56 +56 опасность
перегрева
995.6 993.2
06 15.07 СВ 5 н/о н/о +34.6 +29.5 75 +60 +60 опасность
перегрева
996.9 994.5 +31.1
09 15.07 СВ 5 н/о н/о +35.8 +28.2 65 +57 +57 опасность
перегрева
995.5 993.1
12 15.07 СВ 4 н/о н/о +35.1 +27.7 66 +55 +55 опасность
перегрева
993.7 991.4
15 15.07 СВ 2 н/о н/о +33.6 +26.8 68 +51 +51 опасность
перегрева
993.4 991.0
18 15.07 С 2 н/о н/о +32.6 +26.9 72 +50 +50 опасность
перегрева
994.2 991.8 +36.4
21 15.07 В 1 н/о н/о +32.3 +28.0 78 +53 +53 опасность
перегрева
993.9 991.5
00 16.07 штиль 0 н/о н/о +30.5 +24.8 72 +44 +44 опасность
перегрева
992.7 990.3
03 16.07 В 2 н/о н/о +32.1 +28.4 81 +54 +54 опасность
перегрева
994.9 992.5
06 16.07 СВ 3 н/о н/о +35.9 +26.1 57 +52 +52 опасность
перегрева
995.2 992.8 +30.0
09 16.07 СВ 5 н/о н/о +36.3 +27.4 60 +55 +55 опасность
перегрева
994.3 991.9
12 16.07 СВ 4 н/о н/о +35.7 +28.1 65 +57 +57 опасность
перегрева
993.1 990.7
15 16.07 С 3 н/о н/о +33.9 +29.2 77 +58 +58 опасность
перегрева
993.4 991.0
18 16.07 С 1 н/о н/о +32.6 +29.1 82 +56 +56 опасность
перегрева
994.9 992.5 +36.9
21 16.07 С 3 н/о н/о +32.0 +29.2 85 +56 +56 опасность
перегрева
993.8 991.4
00 17.07 С 2 н/о н/о +31.8 +29.0 85 +55 +55 опасность
перегрева
995.0 992.5
03 17.07 СЗ 1 н/о н/о +32.7 +28.8 80 +56 +56 опасность
перегрева
996.5 994.1
06 17.07 СВ 4 н/о н/о +35.9 +27.9 64 +57 +57 опасность
перегрева
996.8 994.4 +31.7
09 17.07 СВ 4 н/о н/о +35.9 +28.3 65 +57 +57 опасность
перегрева
995.9 993.5

 

Местоположение метеостанции Diba (Оман): широта 25.62 долгота 56.25 высота над уровнем моря 20 м.

В архиве по умолчанию представлена погода в Diba за последнюю неделю. Архивные данные за месяц целиком и за предыдущие месяцы, начиная с января 2011 года, Вы можете получить, выбрав интересующий диапазон дат из раскрывающегося списка и нажав кнопку "Ввод!".


*Определитесь, кто Вы:
робот инопланетянин человек

Внимание! Время в таблицах - всемирное. Для получения местного времени необходимо прибавить поправку, которая в Diba равна 4 ч.

Смотрите также архив погоды в соседних городах и на ближайших метеорологических станциях:

Погода в Ras Al Khaimah Int Airport (ОАЭ) (32 км)
Погода в Fujairah (ОАЭ) (58 км)
Погода в Khasab Airport (Оман) (61 км)
Погода в Khasab (Оман) (66 км)
Погода в Sharjah (ОАЭ) (80 км)
Погода в Dubai (ОАЭ) (101 км)
Погода в Sohar Majis (Оман) (134 км)
Погода в Dubai Al Maktoum Int Airport (ОАЭ) (136 км)
Погода в Abu Musa Island (Иран) (144 км)
Погода в Jask (Иран) (152 км)

Пояснения к столбцам:

Ветер - указаны скорость ветра в м/с - средняя за 10 мин, порывы в срок и между сроками (в фигурных скобках) и направление, откуда дует ветер: С - северный, СВ - северо-восточный, В - восточный, ЮВ - юго-восточный, Ю - южный, ЮЗ - юго-западный, З - западный, СЗ - северо-западный.
Видимость - горизонтальная дальность видимости в метрах или километрах. При видимости от 1 до 10 км при отсутствии осадков обычно наблюдается дымка, при ухудшении видимости до 1 км и менее - туман. В сухую погоду видимость может ухудшаться дымом, пылью или мглою.
Явления - указаны атмосферные явления, наблюдавшиеся в срок или в последний час перед сроком; фигурными скобками обозначены явления, наблюдавшиеся между сроками (за 1-3 часа до срока); квадратными скобками обозначены град или гололедные отложения с указанием их диаметра в мм.
Облачность - указаны через наклонную черту общая и нижняя облачность в баллах и высота нижней границы облаков в метрах; квадратными скобками обозначены формы облаков: Ci - перистые, Cs - перисто-слоистые, Cc - перисто-кучевые, Ac - высококучевые, As - высокослоистые, Sc - слоисто-кучевые, Ns - слоисто-дождевые, Cu - кучевые, Cb - кучево-дождевые. Подробнее классификацию облаков см. в Атласе облаков (PDF).
T - Температура воздуха - температура, измеренная на высоте 2 м над землей.
Td - Температура точки росы - температура, при понижении до которой содержащийся в воздухе водяной пар достигнет насыщения.
f - Относительная влажность воздуха - влажноcть воздуха, измеренная на высоте 2 м над землей.
Te - Эффективная температура - температура, которую ощущает одетый по сезону человек в тени. Характеристика душности погоды. При расчете учитывается влияние влажности воздуха и скорости ветра на теплоощущения человека.
Tes - Эффективная температура на солнце - температура, которую ощущает человек, с поправкой на солнечный нагрев. Характеристика знойности погоды. Зависит от высоты солнца над горизонтом, облачности и скорости ветра. Ночью, в пасмурную погоду, а также при ветре 12 м/с и более поправка равна нулю.
P - Атмосферное давление - приведенное к уровню моря атмосферное давление.
Po - Атмосферное давление - измеренное на уровне метеостанции атмосферное давление.
Tmin - Минимальная температура - минимум температуры воздуха на высоте 2 м над землей.
Tmax - Максимальная температура - максимум температуры воздуха на высоте 2 м над землей.
R - Количество осадков - Количество выпавших осадков за период времени, мм. При наведении курсора мыши на число - период времени, за который выпало указанное количество осадков.
R24 - Количество осадков - Количество выпавших осадков за 24 часа, мм.
S - Снежный покров - Высота снежного покрова, см. При наведении курсора мыши на число - состояние снежного покрова и степень покрытия местности в баллах.